[[{"header":{"parameterUnit":"m.s-1","parameterCategory":1,"la1":30.2991,"la2":30.254,"lo1":-89.0895,"lo2":-89.0444,"dy":0.0017,"dx":0.0017,"nx":28,"ny":28,"refTime":"2024-05-29T09:00:00:Z","depth":0,"parameterNumber":2,"parameterNumberName":"U-component_of_WINDS"},"data":[0,0,0,0,0,0,0,0,0,0,0,0,0,0,0,0,0,0,0,0,0,0,0,0,0,0,0,0,0,0,0,0,0,0,0,0,0,0,0,0,0,0,0,0,0,0,0,0,0,0,0,0,0,0,0,0,0,0,-3.5612,-3.5613,0,-3.572,-3.5721,-3.5722,-3.571,-3.5708,-3.5706,-3.5704,-3.5813,-3.5817,-3.5821,0,0,0,0,0,0,0,0,0,0,0,0,0,-3.5392,-3.5397,-3.5612,-3.5613,-3.5615,-3.572,-3.5721,-3.5723,-3.571,-3.5708,-3.5706,-3.5704,-3.5811,-3.5816,-3.5822,0,0,0,0,0,0,0,0,0,0,0,0,0,-3.5493,-3.5398,-3.5612,-3.5621,-3.5623,-3.5719,-3.5721,-3.5723,-3.571,-3.5708,-3.5705,-3.5703,-3.5809,-3.5816,-3.5823,-3.5916,0,0,-3.5843,-3.5846,0,0,0,0,0,0,0,0,-3.5487,-3.5501,-3.5618,-3.562,-3.5623,-3.5699,-3.5683,-3.5788,-3.5711,-3.5677,-3.5704,-3.5701,-3.5777,-3.5786,-3.5812,-3.5921,-3.5926,-3.5844,-3.5848,-3.5851,-3.5853,0,0,0,0,0,0,0,-3.548,-3.5496,-3.5654,-3.562,-3.5623,-3.5619,-3.563,-3.5703,-3.574,-3.568,-3.5679,-3.5692,-3.5777,-3.5805,-3.5814,-3.5927,-3.5844,-3.585,-3.5854,-3.5856,-3.6118,-3.612,0,0,0,0,0,0,-3.5471,-3.549,-3.5651,-3.5658,-3.5547,-3.5625,-3.5638,-3.5677,-3.5739,-3.5746,-3.5694,-3.5691,-3.5795,-3.5806,-3.5818,-3.593,-3.5851,-3.5857,-3.5861,-3.6115,-3.6118,-3.6122,0,0,0,0,0,0,-3.5467,-3.5486,-3.5647,-3.5574,-3.5594,-3.5632,-3.5676,-3.568,-3.5708,-3.575,-3.5756,-3.5716,-3.5793,-3.5808,-3.5892,-3.5934,-3.586,-3.5866,-3.6111,-3.6116,-3.612,-3.6156,0,0,0,0,0,0,-3.546,-3.5484,-3.552,-3.5575,-3.5598,-3.5719,-3.5678,-3.5684,-3.572,-3.5717,-3.5772,-3.5779,-3.5793,-3.5882,-3.5898,-3.5942,-3.5871,-3.6108,-3.6113,-3.6119,-3.6151,-3.6161,-3.617,0,0,0,0,0,-3.5453,-3.5526,-3.5522,-3.5542,-3.5644,-3.5722,-3.5735,-3.575,-3.5724,-3.576,-3.5787,-3.5777,-3.5927,-3.589,-3.5909,-3.5955,-3.6105,-3.6112,-3.6118,-3.6147,-3.6159,-3.6169,0,0,0,0,0,0,-3.5475,-3.5533,-3.553,-3.5623,-3.5668,-3.5719,-3.5766,-3.5762,-3.5814,-3.5809,-3.5825,-3.5837,-3.5921,-3.5947,-3.5905,-3.6048,-3.6012,-3.6023,-3.6028,-3.604,-3.6049,-3.604,-3.5877,0,0,0,0,0,-3.5491,-3.5549,-3.5597,-3.5675,-3.5697,-3.5728,-3.5762,-3.577,-3.5816,-3.5835,-3.5868,-3.5912,-3.5969,-3.6006,-3.6061,-3.6156,-3.6167,-3.6197,-3.6206,-3.6213,-3.6221,-3.6272,-3.6285,-3.6143,-3.6143,-3.6143,0,0,-3.5523,-3.5563,-3.5599,-3.568,-3.5716,-3.5775,-3.5744,-3.5808,-3.5852,-3.5844,-3.5924,-3.5951,-3.6001,-3.609,-3.6131,-3.6114,-3.6264,-3.6222,-3.6227,-3.6231,-3.628,-3.6293,-3.6305,-3.6147,-3.6147,-3.6146,0,0,-3.5613,-3.565,-3.5718,-3.5755,-3.5809,-3.5829,-3.5845,-3.5898,-3.5915,-3.5996,-3.5991,-3.6044,-3.6142,-3.6178,-3.6209,-3.6314,-3.6306,-3.6332,-3.6379,-3.6428,-3.6439,-3.6449,-3.6484,-3.6497,-3.634,-3.634,-3.634,0,-3.5647,-3.5737,-3.5754,-3.5819,-3.5854,-3.5851,-3.592,-3.5954,-3.6023,-3.6047,-3.6028,-3.6151,-3.6185,-3.6282,-3.6307,-3.6333,-3.6351,-3.6324,-3.6436,-3.6446,-3.6456,-3.649,-3.6503,-3.6343,-3.6343,-3.6342,-3.6342,0,-3.5775,-3.5838,-3.5886,-3.5954,-3.5995,-3.6061,-3.6087,-3.6127,-3.6131,-3.6153,-3.6235,-3.6277,-3.6339,-3.6363,-3.6368,-3.6461,-3.6448,-3.6433,-3.6396,-3.6472,-3.6504,-3.6517,-3.6347,-3.6346,-3.6345,-3.6344,0,0,-3.588,-3.5957,-3.5974,-3.6004,-3.6064,-3.6112,-3.6178,-3.6241,-3.6273,-3.6322,-3.6376,-3.646,-3.6446,-3.6482,-3.6491,-3.6534,-3.6613,-3.6513,-3.6515,-3.6528,-3.6715,-3.6725,-3.674,-3.6609,-3.6612,-3.6614,-3.671,0,-3.5975,-3.6092,-3.6109,-3.6212,-3.6269,-3.6268,-3.6325,-3.6368,-3.639,-3.6442,-3.6466,-3.6525,-3.6503,-3.6524,-3.6567,-3.6594,-3.665,-3.6588,-3.6658,-3.6661,-3.6643,-3.6757,-3.6767,-3.6856,-3.6723,-3.6725,-3.6727,0,-3.61,-3.6152,-3.6261,-3.6313,-3.6337,-3.6389,-3.6446,-3.6496,-3.6544,-3.6557,-3.6598,-3.6602,-3.6669,-3.6632,-3.6725,-3.6682,-3.6713,-3.673,-3.6734,-3.6739,-3.6696,-3.6763,-3.6885,-3.6897,-3.6747,-3.6745,-3.6744,0,-3.6163,-3.6261,-3.6338,-3.6364,-3.6427,-3.6463,-3.6491,-3.6536,-3.6572,-3.6623,-3.6647,-3.6705,-3.6736,-3.678,-3.68,-3.6771,-3.6891,-3.6855,-3.6902,-3.6901,-3.6925,-3.6923,-3.7051,-3.6949,-3.6949,-3.6948,-3.6948,0,-3.6265,-3.6331,-3.6367,-3.6414,-3.6488,-3.6507,-3.658,-3.6606,-3.6647,-3.6699,-3.6702,-3.6751,-3.6774,-3.6826,-3.6842,-3.6915,-3.693,-3.6941,-3.6944,-3.694,-3.6938,-3.6958,-3.6951,-3.6952,-3.6951,-3.695,-3.695,0,-3.6347,-3.6374,-3.6458,-3.6511,-3.6526,-3.6578,-3.6623,-3.6668,-3.6691,-3.6756,-3.6773,-3.6808,-3.6869,-3.6894,-3.6969,-3.6979,-3.7063,-3.7063,-3.7047,-3.7047,-3.7091,-3.7086,-3.7236,-3.7255,-3.7142,-3.7143,-3.7144,0,-3.641,-3.6461,-3.6519,-3.6554,-3.6583,-3.664,-3.6677,-3.6698,-3.6736,-3.6795,-3.6833,-3.6895,-3.6945,-3.7043,-3.7074,-3.7132,-3.7131,-3.7179,-3.7139,-3.7133,-3.7129,-3.7125,-3.7129,-3.7186,-3.7187,-3.7188,-3.7189,0,-3.6517,-3.6528,-3.6581,-3.6639,-3.6683,-3.673,-3.6776,-3.6804,-3.6832,-3.6875,-3.6938,-3.6977,-3.7053,-3.7114,-3.7173,-3.7201,-3.7199,-3.7202,-3.7215,-3.7209,-3.7197,-3.7202,-3.7064,-3.7197,-3.7196,-3.7196,-3.7195,-3.7195,-3.659,-3.6634,-3.6682,-3.6741,-3.6778,-3.682,-3.6866,-3.6894,-3.6947,-3.7011,-3.7021,-3.7088,-3.7134,-3.7214,-3.7244,-3.7296,-3.7283,-3.7303,-3.7308,-3.7312,-3.7314,-3.7191,-3.7307,-3.7307,-3.7307,-3.7307,-3.7307,0,-3.6695,-3.6726,-3.678,-3.6844,-3.689,-3.6886,-3.6937,-3.6975,-3.7034,-3.7078,-3.7128,-3.72,-3.7258,-3.7295,-3.7354,-3.7389,-3.7389,-3.7403,-3.74,-3.7406,-3.7323,-3.7304,-3.7402,-3.7402,-3.7402,-3.7402,-3.7402,-3.7402,-3.6755,-3.683,-3.6846,-3.6939,-3.697,-3.7036,-3.7065,-3.7103,-3.7138,-3.7219,-3.7268,-3.7292,-3.7333,-3.7395,-3.7448,-3.7457,-3.7478,-3.7492,-3.75,-3.7422,-3.7412,-3.7402,-3.7385,-3.7497,-3.7498,-3.7579,-3.7579,-3.758]},{"header":{"parameterUnit":"m.s-1","parameterCategory":1,"la1":30.2991,"la2":30.254,"lo1":-89.0895,"lo2":-89.0444,"dy":0.0017,"dx":0.0017,"nx":28,"ny":28,"refTime":"2024-05-29T09:00:00:Z","depth":0,"parameterNumber":3,"parameterNumberName":"V-component_of_WINDS"},"data":[0,0,0,0,0,0,0,0,0,0,0,0,0,0,0,0,0,0,0,0,0,0,0,0,0,0,0,0,0,0,0,0,0,0,0,0,0,0,0,0,0,0,0,0,0,0,0,0,0,0,0,0,0,0,0,0,0,0,3.1949,3.1948,0,3.1875,3.1874,3.1873,3.1751,3.1749,3.1746,3.1744,3.167,3.167,3.167,0,0,0,0,0,0,0,0,0,0,0,0,0,3.1985,3.1985,3.1949,3.1948,3.1947,3.1875,3.1874,3.1873,3.1751,3.1748,3.1746,3.1743,3.167,3.167,3.167,0,0,0,0,0,0,0,0,0,0,0,0,0,3.1946,3.1985,3.1949,3.1878,3.187,3.1875,3.1874,3.1873,3.1752,3.1748,3.1745,3.1742,3.167,3.167,3.167,3.1739,0,0,3.1671,3.1671,0,0,0,0,0,0,0,0,3.1949,3.1945,3.1889,3.1882,3.1874,3.1819,3.186,3.1828,3.1753,3.1797,3.1744,3.174,3.1722,3.1718,3.1711,3.1736,3.1733,3.1671,3.1671,3.1671,3.1671,0,0,0,0,0,0,0,3.1952,3.1948,3.192,3.1888,3.1879,3.1849,3.184,3.1853,3.178,3.1793,3.1784,3.1777,3.1717,3.1712,3.1709,3.1732,3.1671,3.1671,3.1671,3.1671,3.1808,3.1811,0,0,0,0,0,0,3.1965,3.1951,3.1922,3.1917,3.1904,3.1852,3.1841,3.184,3.1779,3.1766,3.178,3.1771,3.1713,3.1709,3.1706,3.1781,3.1671,3.1671,3.1671,3.1804,3.1809,3.1812,0,0,0,0,0,0,3.1966,3.1963,3.1925,3.1932,3.1924,3.1855,3.1854,3.184,3.1834,3.1769,3.1755,3.1787,3.171,3.1705,3.1731,3.1777,3.1671,3.1671,3.18,3.1806,3.181,3.1934,0,0,0,0,0,0,3.1968,3.1964,3.199,3.1933,3.1925,3.1952,3.1857,3.1841,3.1835,3.1823,3.1772,3.1761,3.1707,3.1732,3.1732,3.1775,3.1671,3.1796,3.1803,3.1809,3.1925,3.1943,3.1958,0,0,0,0,0,3.1969,3.2028,3.1992,3.1989,3.1955,3.1955,3.195,3.1887,3.1839,3.1864,3.1822,3.1762,3.1773,3.1736,3.1734,3.1779,3.1792,3.1801,3.1808,3.1918,3.1939,3.1957,0,0,0,0,0,0,3.2092,3.2019,3.1978,3.202,3.1995,3.1934,3.1963,3.1912,3.1899,3.1889,3.1811,3.1801,3.1837,3.1811,3.1771,3.1842,3.1773,3.1781,3.1857,3.1877,3.1893,3.1897,3.1672,0,0,0,0,0,3.2124,3.213,3.2066,3.211,3.2099,3.2034,3.2032,3.1985,3.1956,3.1944,3.1904,3.1878,3.1875,3.1875,3.1869,3.1922,3.1908,3.1952,3.1968,3.1982,3.1989,3.2013,3.2031,3.1838,3.1838,3.1838,0,0,3.2191,3.2151,3.216,3.2134,3.2108,3.2116,3.2026,3.2038,3.2043,3.1946,3.1967,3.1938,3.1904,3.1943,3.1959,3.1922,3.2039,3.1992,3.2003,3.2002,3.2023,3.2041,3.2058,3.1844,3.1843,3.1842,0,0,3.2314,3.2286,3.2318,3.2295,3.2258,3.2214,3.2222,3.217,3.2146,3.2166,3.2093,3.2099,3.2096,3.2074,3.2062,3.2179,3.2123,3.2179,3.2262,3.2287,3.2302,3.2315,3.2355,3.237,3.2187,3.2188,3.2188,0,3.2401,3.2409,3.2342,3.2358,3.2348,3.2262,3.2293,3.2274,3.2237,3.2233,3.2193,3.2187,3.2158,3.219,3.2218,3.2213,3.2219,3.2183,3.2306,3.2318,3.2329,3.2366,3.2381,3.2194,3.2194,3.2193,3.2192,0,3.2517,3.2524,3.2555,3.252,3.2515,3.2539,3.2475,3.2477,3.2432,3.2393,3.2415,3.2377,3.2361,3.2366,3.2322,3.2392,3.237,3.232,3.2248,3.2355,3.2388,3.2402,3.2204,3.2202,3.22,3.2198,0,0,3.2714,3.2642,3.2655,3.2637,3.2591,3.2595,3.2616,3.26,3.2602,3.2581,3.2595,3.2595,3.2547,3.2534,3.2487,3.251,3.2602,3.2456,3.2454,3.2482,3.2674,3.2711,3.2729,3.2566,3.2568,3.257,3.2676,0,3.2826,3.2856,3.2796,3.2841,3.2846,3.2764,3.2782,3.2755,3.272,3.2719,3.268,3.268,3.2618,3.261,3.2628,3.2587,3.2639,3.2579,3.2577,3.2578,3.2585,3.2746,3.2785,3.2887,3.2689,3.2691,3.2693,0,3.296,3.2944,3.2989,3.2939,3.2939,3.2956,3.2936,3.2937,3.2905,3.2878,3.2864,3.2809,3.2825,3.2759,3.2779,3.274,3.2736,3.2716,3.2718,3.2713,3.264,3.2744,3.2918,3.2933,3.2713,3.2711,3.271,0,3.3097,3.3087,3.3112,3.31,3.3043,3.3057,3.3034,3.2998,3.2992,3.2976,3.2971,3.2957,3.2948,3.2939,3.2881,3.2838,3.2908,3.2837,3.2885,3.2886,3.2901,3.29,3.3075,3.2903,3.2903,3.2903,3.2902,0,3.3227,3.3257,3.3172,3.3188,3.3219,3.3151,3.3184,3.3152,3.3122,3.3129,3.3059,3.3068,3.2992,3.2993,3.2948,3.2971,3.2969,3.2946,3.2933,3.2951,3.2954,3.2945,3.2936,3.2907,3.2906,3.2905,3.2904,0,3.3383,3.3328,3.335,3.3294,3.3281,3.3306,3.3258,3.327,3.323,3.3241,3.3239,3.3177,3.3174,3.3116,3.3101,3.3071,3.3111,3.3086,3.3122,3.3113,3.3162,3.3158,3.3336,3.3355,3.3174,3.3175,3.3177,0,3.3468,3.3489,3.3436,3.3436,3.3416,3.3417,3.341,3.3345,3.3341,3.3306,3.3322,3.3313,3.3302,3.3301,3.3254,3.3242,3.3215,3.3278,3.3212,3.3229,3.3213,3.3211,3.3212,3.3291,3.3294,3.3295,3.3297,0,3.3625,3.3596,3.359,3.3574,3.3568,3.3552,3.3532,3.3536,3.3464,3.3463,3.3459,3.345,3.3434,3.3426,3.3405,3.3381,3.3327,3.3319,3.3328,3.3345,3.3364,3.3352,3.3157,3.3314,3.3312,3.3311,3.331,3.3309,3.3746,3.3761,3.3725,3.372,3.3698,3.3681,3.3689,3.365,3.3646,3.3627,3.3589,3.3591,3.3558,3.3524,3.3505,3.3504,3.3472,3.3487,3.349,3.3494,3.3503,3.3366,3.3501,3.35,3.35,3.3499,3.3499,0,3.3897,3.387,3.3866,3.384,3.3836,3.3787,3.3762,3.3761,3.3764,3.3738,3.3728,3.3723,3.3715,3.3668,3.3654,3.3663,3.3637,3.3661,3.3658,3.3653,3.3534,3.3526,3.3682,3.3682,3.3682,3.3682,3.3681,3.3681,3.3975,3.3996,3.3964,3.3974,3.3947,3.3948,3.3938,3.3921,3.39,3.3897,3.389,3.386,3.3825,3.3808,3.3798,3.3784,3.3781,3.3813,3.3791,3.368,3.3662,3.3645,3.3637,3.3813,3.3814,3.391,3.3911,3.3911]}]]